This is the latest recevied weather packets stored in our database for station/object SV2LPQ-2. If no packets are shown the sender has not sent any weather packets the latest 10 day(s).
| Time | Temp. | Humidity | Pressure | Rain* | Wind** | Luminosity | Snow |
|---|---|---|---|---|---|---|---|
| 1776936430 | 15.56° C | 67% | 1042.5 hPa | 0 mm | - | - | - |
| 1776935930 | 15° C | 69% | 1042.5 hPa | 0 mm | - | - | - |
| 1776935429 | 15° C | 68% | 1042.5 hPa | 0 mm | - | - | - |
| 1776934929 | 15° C | 66% | 1042.5 hPa | 0 mm | - | - | - |
| 1776934429 | 14.44° C | 68% | 1042.5 hPa | 0 mm | - | - | - |
| 1776933929 | 14.44° C | 68% | 1042.5 hPa | 0 mm | - | - | - |
| 1776933429 | 13.89° C | 67% | 1042.5 hPa | 0 mm | - | - | - |
| 1776932929 | 13.89° C | 71% | 1042.5 hPa | 0 mm | - | - | - |
| 1776932429 | 13.33° C | 70% | 1042.5 hPa | 0 mm | - | - | - |
| 1776931929 | 13.33° C | 70% | 1042.5 hPa | 0 mm | - | - | - |
| 1776931429 | 13.33° C | 76% | 1042.5 hPa | 0 mm | - | - | - |
| 1776930928 | 12.78° C | 74% | 1042.5 hPa | 0 mm | - | - | - |
| 1776930428 | 13.33° C | 72% | 1042.5 hPa | 0 mm | - | - | - |
| 1776929928 | 13.33° C | 74% | 1042.5 hPa | 0 mm | - | - | - |
| 1776929428 | 13.33° C | 73% | 1042.5 hPa | 0 mm | - | - | - |
| 1776928928 | 13.33° C | 75% | 1042.5 hPa | 0 mm | - | - | - |
| 1776928428 | 12.78° C | 77% | 1042.5 hPa | 0 mm | - | - | - |
| 1776927928 | 12.22° C | 78% | 1042.5 hPa | 0 mm | - | - | - |
| 1776927427 | 11.67° C | 81% | 1042.5 hPa | 0 mm | - | - | - |
| 1776926927 | 11.67° C | 84% | 1042.5 hPa | 0 mm | - | - | - |
| 1776926427 | 11.11° C | 85% | 1042.5 hPa | 0 mm | - | - | - |
| 1776925927 | 11.11° C | 86% | 1042.5 hPa | 0 mm | - | - | - |
| 1776925427 | 11.11° C | 87% | 1042.5 hPa | 0 mm | - | - | - |
| 1776924927 | 10.56° C | 87% | 1042.5 hPa | 0 mm | - | - | - |
| 1776924427 | 10.56° C | 88% | 1042.5 hPa | 0 mm | - | - | - |
* Rain latest hour (hover to see other rain measurements)
** Current wind speed in m/s (hover to see current wind gust speed)